Location: Unspecified
(0.0000°N, 0.0000°E)
Time: 16:20:24
(UTC+00:00)

Courier 1B - Pass Details

Date: 27 November 2019
Orbit: 963 x 1209 km, 28.3° (Epoch: 12 December)

Event Time Altitude Azimuth Distance (km) Brightness Sun altitude
Rises 10:24:47 0° 300° (WNW) 3,684 10.2 60.8°
Reaches altitude 10° 10:27:28 10° 300° (WNW) 2,715 9.7 61.2°
Maximum altitude 10:34:01 90° 229° (SW) 962 8.9 62.3°
Drops below altitude 10° 10:40:30 10° 120° (ESE) 2,694 10.4 63.3°
Sets 10:43:09 0° 120° (ESE) 3,654 10.8 63.7°
